UPS125 LBSF-LGKR

Flight info

Callsign UPS125
Flight time 0h 54m
Altitude 38000
Route NAPET T214 SIN DCT BITLA/N0455F370 UN731 YNN G12 PARAX
Aircraft B752/M-SDE3FGHIM3RWXY/LB1

Departure

Time 2026-04-27 13:49
Airport Sofia Airport (LBSF)

Arrival

Time 2026-04-27 14:44
Airport Corfu Ioannis Kapodistrias International Airport (LGKR)
Time Latitude Longitude Altitude Speed Heading
2026-04-27 13:39 42.69176 23.39861 1766 ft 0 kts 196°
2026-04-27 13:45 42.69157 23.39853 1766 ft 5 kts 197°
2026-04-27 13:46 42.69125 23.39817 1767 ft 6 kts 255°
2026-04-27 13:46 42.69136 23.39741 1767 ft 9 kts 286°
2026-04-27 13:46 42.69159 23.39636 1766 ft 13 kts 287°
2026-04-27 13:46 42.69211 23.39546 1765 ft 12 kts 359°
2026-04-27 13:47 42.69305 23.39555 1763 ft 14 kts
2026-04-27 13:47 42.69410 23.39567 1760 ft 15 kts
2026-04-27 13:47 42.69524 23.39582 1757 ft 17 kts
2026-04-27 13:47 42.69640 23.39594 1756 ft 11 kts
2026-04-27 13:48 42.69647 23.39595 1756 ft 0 kts
2026-04-27 13:48 42.69701 23.39600 1755 ft 17 kts
2026-04-27 13:48 42.69767 23.39691 1754 ft 14 kts 92°
2026-04-27 13:48 42.69754 23.39886 1754 ft 38 kts 94°
2026-04-27 13:49 42.69713 23.40597 1759 ft 110 kts 95°
2026-04-27 13:49 42.69636 23.41921 1804 ft 168 kts 93°
2026-04-27 13:49 42.69558 23.43599 2422 ft 185 kts 94°
2026-04-27 13:49 42.69467 23.45286 3357 ft 185 kts 93°
2026-04-27 13:50 42.69365 23.47191 3659 ft 217 kts 93°
2026-04-27 13:50 42.69157 23.49264 4307 ft 232 kts 100°
2026-04-27 13:50 42.68595 23.51448 4717 ft 260 kts 123°
2026-04-27 13:50 42.67292 23.53186 5374 ft 275 kts 151°
2026-04-27 13:51 42.65472 23.53905 6302 ft 275 kts 181°
2026-04-27 13:51 42.63580 23.53681 7284 ft 277 kts 187°
2026-04-27 13:51 42.61646 23.53507 8153 ft 283 kts 185°
2026-04-27 13:51 42.59690 23.53404 9037 ft 288 kts 184°
2026-04-27 13:52 42.57663 23.53331 9861 ft 294 kts 184°
2026-04-27 13:52 42.55572 23.53251 10129 ft 308 kts 188°
2026-04-27 13:52 42.53480 23.52555 10677 ft 318 kts 206°
2026-04-27 13:52 42.51569 23.50931 11028 ft 334 kts 224°
2026-04-27 13:53 42.48809 23.45567 11894 ft 361 kts 241°
2026-04-27 13:53 42.47541 23.42664 12607 ft 367 kts 241°
2026-04-27 13:53 42.46229 23.39669 13331 ft 372 kts 240°
2026-04-27 13:54 42.44902 23.36656 14043 ft 377 kts 240°
2026-04-27 13:54 42.43568 23.33639 14876 ft 379 kts 240°
2026-04-27 13:54 42.42212 23.30577 15598 ft 384 kts 240°
2026-04-27 13:54 42.40839 23.27480 16345 ft 387 kts 240°
2026-04-27 13:55 42.39438 23.24329 17090 ft 390 kts 240°
2026-04-27 13:55 42.38047 23.21200 17744 ft 394 kts 239°
2026-04-27 13:55 42.36635 23.18031 18449 ft 397 kts 239°
2026-04-27 13:55 42.35203 23.14821 19077 ft 401 kts 239°
2026-04-27 13:56 42.33757 23.11583 19704 ft 405 kts 239°
2026-04-27 13:56 42.32295 23.08312 20295 ft 410 kts 240°
2026-04-27 13:56 42.30835 23.05047 20894 ft 413 kts 240°
2026-04-27 13:56 42.29344 23.01719 21462 ft 417 kts 240°
2026-04-27 13:57 42.27790 22.98370 22051 ft 421 kts 238°
2026-04-27 13:57 42.26204 22.95052 22631 ft 425 kts 238°
2026-04-27 13:57 42.24603 22.91694 23173 ft 429 kts 238°
2026-04-27 13:57 42.22978 22.88293 23735 ft 432 kts 239°
2026-04-27 13:58 42.21347 22.84882 24305 ft 435 kts 239°
2026-04-27 13:58 42.19709 22.81457 24887 ft 438 kts 239°
2026-04-27 13:58 42.18063 22.78022 25440 ft 442 kts 239°
2026-04-27 13:58 42.16398 22.74549 25963 ft 445 kts 239°
2026-04-27 13:59 42.14723 22.71062 26497 ft 448 kts 239°
2026-04-27 13:59 42.13012 22.67501 27033 ft 450 kts 239°
2026-04-27 13:59 42.11320 22.63985 27545 ft 453 kts 239°
2026-04-27 13:59 42.09609 22.60433 28019 ft 456 kts 239°
2026-04-27 14:00 42.07871 22.56825 28515 ft 458 kts 239°
2026-04-27 14:00 42.06151 22.53260 28972 ft 461 kts 239°
2026-04-27 14:00 42.04407 22.49647 29436 ft 463 kts 239°
2026-04-27 14:00 42.02642 22.45994 29896 ft 465 kts 239°
2026-04-27 14:01 42.00872 22.42337 30310 ft 468 kts 240°
2026-04-27 14:01 41.98997 22.38817 30725 ft 472 kts 233°
2026-04-27 14:01 41.96698 22.35652 31082 ft 479 kts 224°
2026-04-27 14:01 41.94031 22.32942 31639 ft 479 kts 218°
2026-04-27 14:02 41.91292 22.30356 32218 ft 477 kts 218°
2026-04-27 14:02 41.88637 22.27857 32764 ft 475 kts 218°
2026-04-27 14:02 41.85900 22.25298 33308 ft 473 kts 218°
2026-04-27 14:02 41.83219 22.22802 33802 ft 472 kts 218°
2026-04-27 14:03 41.80514 22.20291 34262 ft 470 kts 218°
2026-04-27 14:03 41.77853 22.17826 34705 ft 469 kts 218°
2026-04-27 14:03 41.75171 22.15345 35040 ft 468 kts 218°
2026-04-27 14:03 41.72497 22.12877 35411 ft 467 kts 218°
2026-04-27 14:04 41.69826 22.10414 35716 ft 466 kts 218°
2026-04-27 14:04 41.67138 22.07939 36020 ft 465 kts 218°
2026-04-27 14:04 41.64507 22.05520 36324 ft 464 kts 218°
2026-04-27 14:04 41.61844 22.03073 36592 ft 464 kts 218°
2026-04-27 14:05 41.59183 22.00632 36936 ft 463 kts 218°
2026-04-27 14:05 41.56530 21.98200 37253 ft 463 kts 218°
2026-04-27 14:05 41.53873 21.95766 37574 ft 463 kts 218°
2026-04-27 14:05 41.51234 21.93352 37924 ft 462 kts 218°
2026-04-27 14:06 41.48606 21.90951 38151 ft 460 kts 218°
2026-04-27 14:06 41.43333 21.86139 38152 ft 458 kts 218°
2026-04-27 14:07 41.38078 21.81354 38154 ft 458 kts 218°
2026-04-27 14:07 41.32836 21.76589 38162 ft 458 kts 218°
2026-04-27 14:08 41.27587 21.71829 38155 ft 458 kts 218°
2026-04-27 14:08 41.22300 21.67042 38154 ft 459 kts 218°
2026-04-27 14:09 41.17045 21.62295 38161 ft 459 kts 218°
2026-04-27 14:09 41.11778 21.57545 38158 ft 458 kts 218°
2026-04-27 14:10 41.06519 21.52813 38161 ft 457 kts 218°
2026-04-27 14:10 41.01263 21.48093 38155 ft 458 kts 218°
2026-04-27 14:11 40.96005 21.43379 38159 ft 458 kts 218°
2026-04-27 14:11 40.90717 21.38697 38154 ft 459 kts 215°
2026-04-27 14:12 40.84753 21.35532 38169 ft 471 kts 196°
2026-04-27 14:12 40.78254 21.34083 38173 ft 472 kts 193°
2026-04-27 14:13 40.71768 21.32757 38173 ft 472 kts 192°
2026-04-27 14:13 40.65281 21.31469 38170 ft 473 kts 192°
2026-04-27 14:14 40.58757 21.30191 38164 ft 473 kts 192°
2026-04-27 14:14 40.52285 21.28931 38157 ft 473 kts 192°
2026-04-27 14:15 40.45827 21.27448 38160 ft 468 kts 200°
2026-04-27 14:15 40.39878 21.24248 38153 ft 464 kts 208°
2026-04-27 14:16 40.33995 21.20723 38156 ft 462 kts 208°
2026-04-27 14:16 40.28182 21.17206 38160 ft 462 kts 209°
2026-04-27 14:17 40.22362 21.13677 38156 ft 462 kts 209°
2026-04-27 14:17 40.16512 21.10130 38158 ft 462 kts 209°
2026-04-27 14:18 40.10718 21.06622 38163 ft 463 kts 209°
2026-04-27 14:18 40.04897 21.03107 37924 ft 444 kts 209°
2026-04-27 14:18 40.02166 21.01461 37233 ft 434 kts 209°
2026-04-27 14:19 39.99401 20.99788 36471 ft 438 kts 209°
2026-04-27 14:19 39.96646 20.98125 35854 ft 443 kts 208°
2026-04-27 14:19 39.93821 20.96422 35165 ft 447 kts 208°
2026-04-27 14:19 39.91030 20.94744 34423 ft 445 kts 208°
2026-04-27 14:20 39.88258 20.93081 33436 ft 435 kts 208°
2026-04-27 14:20 39.85507 20.91428 31765 ft 441 kts 208°
2026-04-27 14:20 39.82739 20.89764 30025 ft 445 kts 208°
2026-04-27 14:20 39.79955 20.88095 28177 ft 447 kts 207°
2026-04-27 14:21 39.77179 20.86435 27719 ft 431 kts 208°
2026-04-27 14:21 39.74532 20.84720 27116 ft 425 kts 214°
2026-04-27 14:21 39.72126 20.82471 26548 ft 430 kts 224°
2026-04-27 14:21 39.70052 20.79698 25975 ft 428 kts 234°
2026-04-27 14:22 39.68413 20.76552 25396 ft 420 kts 244°
2026-04-27 14:22 39.67132 20.73171 24806 ft 413 kts 247°
2026-04-27 14:22 39.65936 20.69843 24226 ft 410 kts 248°
2026-04-27 14:22 39.64756 20.66491 23669 ft 407 kts 248°
2026-04-27 14:23 39.63593 20.63143 23132 ft 404 kts 248°
2026-04-27 14:23 39.62465 20.59868 22622 ft 401 kts 248°
2026-04-27 14:23 39.61338 20.56584 22113 ft 397 kts 248°
2026-04-27 14:23 39.60218 20.53314 21601 ft 394 kts 248°
2026-04-27 14:24 39.59126 20.50124 21098 ft 390 kts 248°
2026-04-27 14:24 39.58032 20.46928 20597 ft 388 kts 248°
2026-04-27 14:24 39.56942 20.43744 20075 ft 385 kts 248°
2026-04-27 14:24 39.55861 20.40589 19598 ft 381 kts 248°
2026-04-27 14:25 39.54796 20.37486 19083 ft 378 kts 248°
2026-04-27 14:25 39.53719 20.34346 18566 ft 376 kts 247°
2026-04-27 14:25 39.52665 20.31280 18068 ft 372 kts 247°
2026-04-27 14:25 39.51627 20.28262 17589 ft 370 kts 247°
2026-04-27 14:26 39.50581 20.25225 17091 ft 369 kts 247°
2026-04-27 14:26 39.49532 20.22182 16598 ft 366 kts 247°
2026-04-27 14:26 39.48494 20.19174 16129 ft 365 kts 247°
2026-04-27 14:26 39.47476 20.16227 15659 ft 363 kts 247°
2026-04-27 14:27 39.46446 20.13247 15186 ft 361 kts 247°
2026-04-27 14:27 39.45417 20.10273 14703 ft 360 kts 247°
2026-04-27 14:27 39.44487 20.07322 14235 ft 357 kts 255°
2026-04-27 14:27 39.43991 20.04178 13809 ft 354 kts 261°
2026-04-27 14:28 39.43547 20.01039 13352 ft 354 kts 260°
2026-04-27 14:28 39.43114 19.97946 12931 ft 351 kts 260°
2026-04-27 14:28 39.42683 19.94853 12498 ft 350 kts 260°
2026-04-27 14:28 39.42255 19.91771 12094 ft 349 kts 260°
2026-04-27 14:29 39.41826 19.88674 11653 ft 348 kts 260°
2026-04-27 14:29 39.41401 19.85615 11236 ft 346 kts 259°
2026-04-27 14:29 39.40975 19.82549 10799 ft 345 kts 259°
2026-04-27 14:29 39.40551 19.79498 10374 ft 345 kts 259°
2026-04-27 14:30 39.40139 19.76548 10316 ft 327 kts 259°
2026-04-27 14:30 39.39745 19.73726 10265 ft 309 kts 259°
2026-04-27 14:30 39.39376 19.71081 10270 ft 293 kts 259°
2026-04-27 14:30 39.39023 19.68564 10253 ft 274 kts 259°
2026-04-27 14:31 39.38685 19.66159 10163 ft 276 kts 259°
2026-04-27 14:31 39.38333 19.63661 10014 ft 284 kts 259°
2026-04-27 14:31 39.37983 19.61169 9864 ft 279 kts 259°
2026-04-27 14:31 39.37645 19.58701 9492 ft 281 kts 263°
2026-04-27 14:32 39.37803 19.56214 9035 ft 281 kts 289°
2026-04-27 14:32 39.38763 19.54071 8892 ft 270 kts 309°
2026-04-27 14:32 39.40044 19.52304 8894 ft 276 kts 319°
2026-04-27 14:32 39.41736 19.51075 8955 ft 278 kts 346°
2026-04-27 14:33 39.43602 19.50987 8982 ft 272 kts 13°
2026-04-27 14:33 39.45313 19.52070 9018 ft 281 kts 42°
2026-04-27 14:33 39.46468 19.54082 9026 ft 274 kts 69°
2026-04-27 14:33 39.46808 19.56480 8541 ft 273 kts 97°
2026-04-27 14:34 39.46275 19.58704 8078 ft 259 kts 122°
2026-04-27 14:34 39.45548 19.60860 7633 ft 271 kts 100°
2026-04-27 14:34 39.45487 19.63316 7184 ft 274 kts 91°
2026-04-27 14:34 39.45438 19.65762 6677 ft 270 kts 95°
2026-04-27 14:35 39.45295 19.68146 6206 ft 268 kts 97°
2026-04-27 14:35 39.45108 19.70516 5715 ft 259 kts 98°
2026-04-27 14:35 39.44908 19.72748 5482 ft 240 kts 99°
2026-04-27 14:35 39.44709 19.74818 5279 ft 225 kts 99°
2026-04-27 14:36 39.44514 19.76755 5125 ft 209 kts 99°
2026-04-27 14:36 39.44332 19.78524 5068 ft 188 kts 99°
2026-04-27 14:36 39.44166 19.80123 4988 ft 175 kts 100°
2026-04-27 14:36 39.43995 19.81717 4845 ft 183 kts 100°
2026-04-27 14:37 39.43820 19.83358 4663 ft 185 kts 99°
2026-04-27 14:37 39.43647 19.84976 4469 ft 182 kts 99°
2026-04-27 14:37 39.43474 19.86593 4282 ft 180 kts 99°
2026-04-27 14:37 39.43302 19.88190 4129 ft 180 kts 99°
2026-04-27 14:38 39.43126 19.89821 4011 ft 181 kts 99°
2026-04-27 14:38 39.42953 19.91425 3864 ft 182 kts 99°
2026-04-27 14:38 39.42774 19.93075 3448 ft 187 kts 99°
2026-04-27 14:38 39.42599 19.94706 3197 ft 177 kts 99°
2026-04-27 14:39 39.42538 19.96310 2937 ft 182 kts 76°
2026-04-27 14:39 39.43186 19.97537 2916 ft 152 kts 28°
2026-04-27 14:39 39.44106 19.97707 2912 ft 133 kts 339°
2026-04-27 14:39 39.44963 19.97178 2986 ft 140 kts 331°
2026-04-27 14:40 39.45838 19.96576 2949 ft 145 kts 330°
2026-04-27 14:40 39.46736 19.95969 2728 ft 145 kts 332°
2026-04-27 14:40 39.47620 19.95400 2437 ft 140 kts 336°
2026-04-27 14:40 39.48504 19.94909 2130 ft 137 kts 339°
2026-04-27 14:41 39.49386 19.94462 1837 ft 134 kts 340°
2026-04-27 14:41 39.50264 19.94058 1550 ft 135 kts 341°
2026-04-27 14:41 39.51141 19.93709 1343 ft 129 kts 343°
2026-04-27 14:41 39.52020 19.93379 1233 ft 132 kts 345°
2026-04-27 14:42 39.52925 19.93099 1182 ft 134 kts 347°
2026-04-27 14:42 39.53849 19.92850 1134 ft 134 kts 348°
2026-04-27 14:42 39.54777 19.92611 1018 ft 136 kts 348°
2026-04-27 14:42 39.55698 19.92386 874 ft 133 kts 349°
2026-04-27 14:43 39.56585 19.92154 618 ft 132 kts 348°
2026-04-27 14:43 39.57500 19.91918 415 ft 133 kts 348°
2026-04-27 14:43 39.58405 19.91679 218 ft 136 kts 347°
2026-04-27 14:43 39.59325 19.91440 28 ft 129 kts 348°
2026-04-27 14:44 39.60103 19.91236 10 ft 85 kts 348°
2026-04-27 14:44 39.60487 19.91139 9 ft 45 kts 348°
2026-04-27 14:44 39.60791 19.91060 12 ft 43 kts 349°
2026-04-27 14:44 39.60997 19.91014 12 ft 13 kts 15°
2026-04-27 14:45 39.61052 19.91077 12 ft 5 kts 66°
2026-04-27 14:45 39.61041 19.91118 12 ft 5 kts 141°
2026-04-27 14:45 39.61002 19.91135 12 ft 6 kts 168°
2026-04-27 14:45 39.60952 19.91148 12 ft 7 kts 168°
2026-04-27 14:46 39.60928 19.91180 12 ft 4 kts 79°
2026-04-27 14:46 39.60936 19.91230 12 ft 6 kts 78°
2026-04-27 14:46 39.60938 19.91240 12 ft 0 kts 78°